Regional Weather Roundup
Issued by NWS Little Rock, AR

Home | Current Version | Previous Version | Graphics & Text | Print | Product List | Glossary On
Versions: 1 2 3 4 5 6 7 8 9 10 11 12 13 14 15 16 17 18 19 20 21 22 23 24 25 26 27 28 29 30 31 32
000
ASUS44 KLZK 160705
RWRLZK

WEATHER ROUNDUP FOR ARKANSAS
NATIONAL WEATHER SERVICE LITTLE ROCK AR
200 AM CDT MON OCT 16 2017

NOTE: "FAIR" INDICATES FEW OR NO CLOUDS BELOW 12,000 FEET WITH NO
SIGNIFICANT WEATHER AND/OR OBSTRUCTIONS TO VISIBILITY.

ARZ001-003-010-029-160800-
NORTHWEST ARKANSAS

CITY           SKY/WX    TMP DP  RH WIND       PRES   REMARKS
FAYETTEVILLE   CLEAR     40  40 100 CALM      30.38S
FORT SMITH     PTCLDY    51  44  77 CALM      30.37S
HARRISON       CLEAR     46  41  82 NW5       30.37S
BENTONVILLE    CLEAR     44  41  89 CALM      30.40S
ROGERS         CLEAR     42  41  96 CALM      30.39S
SILOAM SPGS    CLEAR     47  39  74 N5        30.39S
HIGHFILL       CLEAR     45  40  82 N6        30.38S
$$

ARZ004-005-016-160800-
NORTH CENTRAL ARKANSAS

CITY           SKY/WX    TMP DP  RH WIND       PRES   REMARKS
BATESVILLE     PTCLDY    51  43  74 N5        30.34S
FLIPPIN        CLEAR     47  44  90 CALM      30.37S
MTN HOME       CLEAR     47  43  86 CALM      30.35S
$$

ARZ040-041-160800-
WEST CENTRAL ARKANSAS

CITY           SKY/WX    TMP DP  RH WIND       PRES   REMARKS
MENA           CLEAR     52  45  76 CALM      30.35S
$$

ARZ009-017-025-026-028-160800-
NORTHEAST ARKANSAS

CITY           SKY/WX    TMP DP  RH WIND       PRES   REMARKS
CORNING        FAIR      50  46  87 N5        30.34R
JONESBORO      CLEAR     53  45  74 N7        30.33R
NEWPORT        CLEAR     47  44  90 N8        30.33S
WALNUT RIDGE   CLEAR     49  44  83 N9        30.34R
BLYTHEVILLE    CLEAR     49  47  93 N7        30.32R
$$

ARZ022-023-033-042-044-160800-
CENTRAL ARKANSAS

CITY           SKY/WX    TMP DP  RH WIND       PRES   REMARKS
LITTLE ROCK    PTCLDY    52  45  77 N7        30.33R
N LITTLE ROCK    N/A     53  44  72 N5        30.34R
JACKSONVILLE   CLEAR     49  45  88 N3        30.32S
SEARCY         CLEAR     52  44  74 N6        30.33R
HOT SPRINGS    CLEAR     58  43  57 VRB6      30.33R
RUSSELLVILLE   PTCLDY    46  44  93 CALM      30.35R
CLINTON        FAIR      45  45 100 CALM      30.36R
$$

ARZ036-160800-
EAST ARKANSAS

CITY           SKY/WX    TMP DP  RH WIND       PRES   REMARKS
WEST MEMPHIS   CLEAR     51  49  92 N7        30.29R
$$

ARZ050-053-066-070-073-160800-
SOUTHWEST ARKANSAS

CITY           SKY/WX    TMP DP  RH WIND       PRES   REMARKS
ARKADELPHIA    FAIR      54  44  69 N6        30.32R
CAMDEN         CLEAR     50  43  76 N3        30.30R
TEXARKANA      CLEAR     53  45  74 N5        30.31R
EL DORADO      PTCLDY    53  46  77 N6        30.29R
DE QUEEN       CLEAR     44  44 100 CALM      30.32R
$$

ARZ056-057-069-160800-
SOUTHEAST ARKANSAS

CITY           SKY/WX    TMP DP  RH WIND       PRES   REMARKS
PINE BLUFF     CLEAR     54  44  69 N10       30.30R
STUTTGART      CLEAR     51  45  79 N8        30.31R
MONTICELLO     CLEAR     56  46  69 VRB5      30.28R

$$






USA.gov is the U.S. government's official web portal to all federal, state and local government web resources and services.